Location: Newark
(58.8333°N, 23.5833°E)
Time: 07:59:29
(UTC+00:00)

Tiros 1 - All Passes

Search period start: 12 November 2019 00:00
Search period end: 22 November 2019 00:00
Orbit: 630 x 664 km, 48.4° (Epoch: 11 November)

Date Brightness Start Highest point End Pass type
(mag) Time Alt. Az. Time Alt. Az. Time Alt. Az.
12 Nov - 15:48:17 10° S 15:50:42 14° SSE 15:53:09 10° ESE visible
12 Nov - 17:28:10 10° SW 17:31:46 22° S 17:35:24 10° ESE visible
12 Nov - 19:09:33 10° WSW 19:12:58 20° SSW 19:16:25 10° SSE visible
12 Nov - 20:53:16 10° SW 20:53:54 10° SSW 20:54:33 10° SSW night (unlit)
13 Nov - 16:12:58 10° SSW 16:16:12 19° SSE 16:19:28 10° ESE visible
13 Nov - 17:53:44 10° SW 17:57:23 23° S 18:01:04 10° SE visible
13 Nov - 19:35:42 10° WSW 19:38:31 16° SSW 19:41:20 10° SSE visible
14 Nov - 14:58:29 10° S 15:00:45 13° SSE 15:03:01 10° ESE visible
14 Nov - 16:38:13 10° SW 16:41:47 22° S 16:45:23 10° ESE visible
14 Nov - 18:19:33 10° WSW 18:22:59 21° SSW 18:26:27 10° SE visible
14 Nov - 20:02:51 10° SW 20:03:56 11° SSW 20:05:03 10° SSW night (unlit)
15 Nov - 15:23:04 10° SSW 15:26:14 18° SSE 15:29:25 10° ESE visible
15 Nov - 17:03:46 10° SW 17:07:24 23° S 17:11:04 10° SE visible
15 Nov - 18:45:39 10° WSW 18:48:32 16° SSW 18:51:26 10° SSE visible
16 Nov - 14:08:42 10° S 14:10:47 13° SSE 14:12:53 10° SE daylight
16 Nov - 15:48:16 10° SW 15:51:49 22° S 15:55:22 10° ESE visible
16 Nov - 17:29:33 10° WSW 17:33:00 21° SSW 17:36:30 10° SE visible
16 Nov - 19:12:35 10° SW 19:13:59 11° SSW 19:15:24 10° SSW visible
17 Nov - 14:33:10 10° SSW 14:36:16 18° SSE 14:39:22 10° ESE daylight
17 Nov - 16:13:47 10° SW 16:17:25 23° S 16:21:05 10° SE visible
17 Nov - 17:55:37 10° WSW 17:58:34 17° SSW 18:01:32 10° SSE visible
18 Nov - 13:18:57 10° S 13:20:50 12° SSE 13:22:43 10° SE daylight
18 Nov - 14:58:20 10° SW 15:01:50 21° S 15:05:21 10° ESE visible
18 Nov - 16:39:33 10° WSW 16:43:02 21° S 16:46:32 10° SE visible
18 Nov - 18:22:23 10° SW 18:24:01 12° SSW 18:25:40 10° S visible
19 Nov - 13:43:17 10° SSW 13:46:18 17° SSE 13:49:19 10° ESE daylight
19 Nov - 15:23:49 10° SW 15:27:27 23° S 15:31:05 10° SE visible
19 Nov - 17:05:35 10° WSW 17:08:36 17° SSW 17:11:37 10° SSE visible
20 Nov - 12:29:13 10° S 12:30:52 12° SSE 12:32:32 10° SE daylight
20 Nov - 14:08:23 10° SW 14:11:51 21° S 14:15:20 10° ESE daylight
20 Nov - 15:49:34 10° WSW 15:53:03 21° S 15:56:34 10° SE visible
20 Nov - 17:32:14 10° SW 17:34:04 12° SSW 17:35:54 10° S visible
21 Nov - 12:53:24 10° SSW 12:56:20 17° SSE 12:59:16 10° ESE daylight
21 Nov - 14:33:51 10° SW 14:37:28 23° S 14:41:05 10° SE visible
21 Nov - 16:15:33 10° WSW 16:18:37 18° SSW 16:21:43 10° SSE visible
